INTEGRAL

Last updated on Jan. 24, 2020, 4:42 a.m. UTC

1 27540U 02048A   20023.20487358  .00000768  00000-0  00000+0 0  9996
2 27540  52.1211 126.2739 8901738 286.3758   2.6728  0.37596516 17844
UTC
Height (km)
Latitude
Longitude
Inclination
Orbital Period
UTC large
Height (km)
Speed (km/s)
/
Latitude / Longitude
Inclination (degrees)
Orbital Period (minutes)
Azimuth
Elevation
Range (km)
Doppler Factor
iOS Compass Heading
iOS Angle

Next 30 passes for location: Hong Kong

Rise time Rise Azimuth (degrees) Set time Set Azimuth (degrees) Duration Max altitude (degrees)

No matching passes for this satellites